Colby, KS

1:11 AM CDT on August 25, 2016 (GMT -0500)
Shaltz

Weather History for KCBK - February, 2014

Change the Weather History Date:

Saturday, February 1, 2014

  Actual Average (KGLD) Record (KGLD)
Temperature  
Mean Temperature 12 °F 30 °F  
Max Temperature 19 °F 43 °F 78 °F (2003)
Min Temperature 3 °F 17 °F -21 °F (1951)
Degree Days  
Heating Degree Days 53 35  
Month to date heating degree days 35  
Since 1 July heating degree days 3538  
Cooling Degree Days 0 0  
Month to date cooling degree days 0  
Year to date cooling degree days 0  
Moisture  
Dew Point 13 °F    
Average Humidity 92    
Maximum Humidity 100    
Minimum Humidity 74    
Precipitation  
Precipitation 0.00 in 0.02 in 0.42 in (1982)
Month to date precipitation 0.02  
Year to date precipitation 0.40  
Snow  
Snow 0.00 in 0.20 in - ()
Month to date snowfall 0.2  
Since 1 July snowfall 18.8  
Snow Depth -    
Sea Level Pressure  
Sea Level Pressure 30.00 in    
Wind  
Wind Speed 7 mph (NNW)    
Max Wind Speed 21 mph    
Max Gust Speed 16 mph    
Visibility 9 miles    
Events Fog , Snow    
T = Trace of Precipitation, MM = Missing Value Source: NWS Daily Summary

Daily Weather History Graph

Daily Weather History Graph

Search for Another Location

Airport or City:

Trip Planner

Search our weather history database for the weather conditions in past years. The results will help you decide how hot, cold, wet, or windy it might be!

Date:

Astronomy

Feb. 01, 2014 Rise Set
Actual Time 7:51 AM CST 6:04 PM CST
Civil Twilight 7:23 AM CST 6:33 PM CST
Nautical Twilight 6:50 AM CST 7:05 PM CST
Astronomical Twilight 6:19 AM CST 7:36 PM CST
Moon 8:43 AM CST (2/1) 8:41 PM CST (2/1)
Length of Visible Light 11h 09m
Length of Day
10h 13m
Waxing Crescent, 5% of the Moon is Illuminated
Feb 1
Waxing Crescent
Feb 6
First Quarter
Feb 14
Full
Feb 22
Last Quarter
Mar 1
New

Hourly Weather History & Observations

Time (CST) Temp. Windchill Dew Point Humidity Pressure Visibility Wind Dir Wind Speed Gust Speed Precip Events Conditions
12:15 AM 19.4 °F 14.3 °F 19.4 °F 100% 29.82 in 10.0 mi SE 3.5 mph - N/A   Overcast
12:35 AM 19.4 °F 12.8 °F 19.4 °F 100% 29.82 in 10.0 mi SSE 4.6 mph - N/A   Overcast
12:55 AM 19.4 °F 14.3 °F 19.4 °F 100% 29.82 in 10.0 mi SSE 3.5 mph - N/A   Overcast
1:15 AM 19.4 °F - 19.4 °F 100% 29.82 in 10.0 mi Calm Calm - N/A   Overcast
1:35 AM 19.4 °F - 19.4 °F 100% 29.81 in 10.0 mi Calm Calm - N/A   Scattered Clouds
1:55 AM 17.6 °F - 17.6 °F 100% 29.82 in 10.0 mi Calm Calm - N/A   Mostly Cloudy
2:15 AM 17.6 °F - 17.6 °F 100% 29.81 in 10.0 mi Calm Calm - N/A   Overcast
2:35 AM 17.6 °F 12.3 °F 17.6 °F 100% 29.82 in 10.0 mi SW 3.5 mph - N/A   Scattered Clouds
2:55 AM 17.6 °F 12.3 °F 17.6 °F 100% 29.82 in 10.0 mi WSW 3.5 mph - N/A   Scattered Clouds
3:15 AM 15.8 °F - 15.8 °F 100% 29.82 in 10.0 mi Calm Calm - N/A   Mostly Cloudy
3:35 AM 17.6 °F - 17.6 °F 100% 29.82 in 10.0 mi Calm Calm - N/A   Overcast
3:55 AM 17.6 °F - 17.6 °F 100% 29.82 in 5.0 mi Calm Calm - N/A   Scattered Clouds
4:15 AM 15.8 °F - 15.8 °F 100% 29.82 in 0.8 mi Calm Calm - N/A   Mist
4:35 AM 14.0 °F - 14.0 °F 100% 29.82 in 0.2 mi Calm Calm - N/A Fog Light Freezing Fog
4:55 AM 12.2 °F 6.1 °F 12.2 °F 100% 29.83 in 0.2 mi WSW 3.5 mph - N/A Fog Light Freezing Fog
5:15 AM 8.6 °F -1.3 °F 8.6 °F 100% 29.83 in 0.2 mi West 5.8 mph - N/A Fog Light Freezing Fog
5:35 AM 10.4 °F 0.8 °F 10.4 °F 100% 29.84 in 0.5 mi WNW 5.8 mph - N/A Fog Light Freezing Fog
5:55 AM 10.4 °F -0.4 °F 10.4 °F 100% 29.84 in 4.0 mi NW 6.9 mph - N/A   Overcast
6:15 AM 10.4 °F -3.3 °F 10.4 °F 100% 29.84 in 7.0 mi NW 10.4 mph - N/A   Scattered Clouds
6:35 AM 12.2 °F -2.5 °F 10.4 °F 92% 29.84 in 10.0 mi NNW 12.7 mph - N/A   Clear
6:55 AM 10.4 °F -3.3 °F 8.6 °F 92% 29.86 in 10.0 mi NW 10.4 mph - N/A   Scattered Clouds
7:15 AM 12.2 °F 1.7 °F 12.2 °F 100% 29.88 in 10.0 mi NNW 6.9 mph - N/A   Scattered Clouds
7:35 AM 12.2 °F 2.9 °F 12.2 °F 100% 29.90 in 10.0 mi North 5.8 mph - N/A   Clear
7:55 AM 12.2 °F 0.7 °F 10.4 °F 92% 29.90 in 10.0 mi NNW 8.1 mph - N/A   Clear
8:15 AM 10.4 °F -3.3 °F 10.4 °F 100% 29.91 in 7.0 mi NNW 10.4 mph - N/A   Mostly Cloudy
8:35 AM 10.4 °F -3.3 °F 10.4 °F 100% 29.92 in 0.2 mi NNW 10.4 mph - N/A Snow Light Snow
8:55 AM 12.2 °F -0.2 °F 12.2 °F 100% 29.93 in 0.2 mi NNW 9.2 mph - N/A Snow Light Snow
9:15 AM 14.0 °F 2.0 °F 14.0 °F 100% 29.93 in 0.5 mi NNW 9.2 mph - N/A Fog Light Freezing Fog
9:35 AM 14.0 °F 2.0 °F 14.0 °F 100% 29.95 in 3.0 mi NNW 9.2 mph - N/A   Mostly Cloudy
9:55 AM 17.6 °F 6.4 °F 17.6 °F 100% 29.96 in 10.0 mi North 9.2 mph - N/A   Scattered Clouds
10:15 AM 17.6 °F 6.4 °F 17.6 °F 100% 29.97 in 10.0 mi North 9.2 mph - N/A   Clear
10:35 AM 17.6 °F 6.4 °F 17.6 °F 100% 29.98 in 10.0 mi North 9.2 mph - N/A   Scattered Clouds
10:55 AM 17.6 °F 3.7 °F 17.6 °F 100% 29.99 in 10.0 mi North 13.8 mph - N/A   Overcast
11:15 AM 17.6 °F 2.2 °F 17.6 °F 100% 30.00 in 10.0 mi North 17.3 mph - N/A   Overcast
11:35 AM 17.6 °F 1.7 °F 17.6 °F 100% 30.00 in 10.0 mi North 18.4 mph - N/A   Overcast
11:55 AM 17.6 °F 0.9 °F 17.6 °F 100% 30.01 in 10.0 mi North 20.7 mph - N/A   Overcast
12:15 PM 17.6 °F 3.2 °F 17.6 °F 100% 30.02 in 10.0 mi North 15.0 mph - N/A   Overcast
12:35 PM 19.4 °F 5.5 °F 15.8 °F 86% 30.01 in 10.0 mi North 15.0 mph - N/A   Overcast
12:55 PM 19.4 °F 7.2 °F 14.0 °F 80% 30.02 in 10.0 mi North 11.5 mph - N/A   Overcast
1:15 PM 19.4 °F 6.0 °F 14.0 °F 80% 30.01 in 10.0 mi North 13.8 mph - N/A   Overcast
1:35 PM 19.4 °F 6.0 °F 14.0 °F 80% 30.02 in 10.0 mi North 13.8 mph - N/A   Overcast
1:55 PM 19.4 °F 5.0 °F 14.0 °F 80% 30.02 in 10.0 mi North 16.1 mph - N/A   Overcast
2:15 PM 19.4 °F 5.5 °F 12.2 °F 74% 30.02 in 10.0 mi North 15.0 mph - N/A   Overcast
2:35 PM 19.4 °F 6.0 °F 12.2 °F 74% 30.04 in 10.0 mi North 13.8 mph - N/A   Overcast
2:55 PM 19.4 °F 7.2 °F 12.2 °F 74% 30.04 in 10.0 mi North 11.5 mph - N/A   Overcast
3:15 PM 19.4 °F 6.0 °F 14.0 °F 80% 30.05 in 10.0 mi NNW 13.8 mph - N/A   Overcast
3:35 PM 19.4 °F 6.0 °F 12.2 °F 74% 30.06 in 10.0 mi North 13.8 mph - N/A   Overcast
3:55 PM 19.4 °F 7.2 °F 14.0 °F 80% 30.07 in 10.0 mi North 11.5 mph - N/A   Overcast
4:15 PM 19.4 °F 7.9 °F 14.0 °F 80% 30.08 in 10.0 mi North 10.4 mph - N/A   Overcast
4:35 PM 19.4 °F 6.0 °F 12.2 °F 74% 30.08 in 10.0 mi North 13.8 mph - N/A   Overcast
4:55 PM 19.4 °F 6.0 °F 12.2 °F 74% 30.09 in 10.0 mi North 13.8 mph - N/A   Overcast
5:15 PM 19.4 °F 8.6 °F 12.2 °F 74% 30.10 in 10.0 mi North 9.2 mph - N/A   Overcast
5:35 PM 17.6 °F 5.7 °F 14.0 °F 86% 30.10 in 10.0 mi NNW 10.4 mph - N/A   Overcast
5:55 PM 17.6 °F 5.0 °F 12.2 °F 79% 30.11 in 10.0 mi NNW 11.5 mph 16.1 mph N/A   Overcast
6:15 PM 17.6 °F 5.7 °F 12.2 °F 79% 30.11 in 10.0 mi North 10.4 mph - N/A   Scattered Clouds
6:35 PM 17.6 °F 5.7 °F 12.2 °F 79% 30.12 in 10.0 mi NNW 10.4 mph - N/A   Clear
6:55 PM 15.8 °F 4.2 °F 12.2 °F 86% 30.14 in 10.0 mi NNW 9.2 mph - N/A   Scattered Clouds
7:15 PM 15.8 °F 5.1 °F 12.2 °F 86% 30.15 in 10.0 mi NNW 8.1 mph - N/A   Scattered Clouds
7:30 PM 15.8 °F 3.4 °F 12.2 °F 86% 30.16 in 10.0 mi NNW 10.4 mph - N/A   Mostly Cloudy
7:55 PM 14.0 °F 2.0 °F 10.4 °F 86% 30.17 in 10.0 mi NW 9.2 mph - N/A   Overcast
8:15 PM 12.2 °F -0.2 °F 10.4 °F 92% 30.18 in 10.0 mi NW 9.2 mph - N/A   Overcast
8:35 PM 10.4 °F -2.4 °F 8.6 °F 92% 30.18 in 10.0 mi NW 9.2 mph - N/A   Mostly Cloudy
8:55 PM 10.4 °F -1.5 °F 8.6 °F 92% 30.19 in 10.0 mi NNW 8.1 mph - N/A   Overcast
9:15 PM 10.4 °F -0.4 °F 8.6 °F 92% 30.19 in 10.0 mi NNW 6.9 mph - N/A   Overcast
9:35 PM 10.4 °F -0.4 °F 8.6 °F 92% 30.20 in 10.0 mi NW 6.9 mph - N/A   Overcast
9:55 PM 8.6 °F 0.1 °F 6.8 °F 92% 30.20 in 10.0 mi NW 4.6 mph - N/A   Overcast
10:15 PM 6.8 °F -5.9 °F 5.0 °F 92% 30.20 in 10.0 mi NW 8.1 mph - N/A   Overcast
10:35 PM 5.0 °F -10.0 °F 3.2 °F 92% 30.20 in 10.0 mi WNW 10.4 mph - N/A   Scattered Clouds
10:55 PM 5.0 °F -9.1 °F 5.0 °F 100% 30.20 in 10.0 mi NW 9.2 mph - N/A   Scattered Clouds
11:15 PM 5.0 °F -9.1 °F 3.2 °F 92% 30.20 in 10.0 mi NW 9.2 mph - N/A   Mostly Cloudy
11:35 PM 5.0 °F -6.9 °F 3.2 °F 92% 30.20 in 10.0 mi WNW 6.9 mph - N/A   Overcast
11:55 PM 3.2 °F -10.3 °F 1.4 °F 92% 30.20 in 10.0 mi WNW 8.1 mph - N/A   Scattered Clouds